Regional Weather Roundup
Issued by NWS

Home | Current Version | Previous Version | Graphics & Text | Print | Product List | Glossary On
Versions: 1 2 3 4 5 6 7 8 9 10 11 12 13 14 15 16 17 18 19 20 21 22 23 24 25 26 27 28 29 30 31 32 33 34 35 36 37 38 39 40 41 42 43 44 45 46 47 48 49 50
000
ASUS45 KBOU 251110
RWRCO

WEATHER ROUNDUP FOR COLORADO
NATIONAL WEATHER SERVICE DENVER/BOULDER CO
400 AM MST SUN FEB 25 2018

NOTE: "FAIR" INDICATES FEW OR NO CLOUDS BELOW 12000 FEET WITH NO
SIGNIFICANT WEATHER AND/OR OBSTRUCTIONS TO VISIBILITY.

COZ001>005-013-030-031-251200-
...NORTHWEST COLORADO...

CITY           SKY/WX    TMP DP  RH WIND       PRES   REMARKS
CRAIG          CLOUDY     7   3  84 W3        29.92S
HAYDEN         FLURRIES  12   9  87 CALM      29.91R
MEEKER         MOCLDY    12   7  80 NE5       29.92R WCI   4
RANGELY        FAIR       7   4  86 CALM      29.98R
RABBIT EARS PA LGT SNOW N/A N/A N/A W9G23     29.70R VSB 3/4
STEAMBOAT SPGS CLOUDY    14  11  91 CALM      29.87R VSB 3/4
WALDEN         MOCLDY    12   1  62 SW14      29.78R WCI  -3
$$

COZ006>008-011-251200-
...WEST CENTRAL VALLEYS...

CITY           SKY/WX    TMP DP  RH WIND       PRES   REMARKS
GRAND JUNCTION CLOUDY    23  21  92 CALM      29.98R
MONTROSE       FAIR      20  15  81 CALM      29.97S
EAGLE          FAIR      12   8  84 SE9       29.92R WCI   0
RIFLE          CLOUDY    17  10  74 S6        29.96R WCI   9
DELTA          FAIR      23  18  82 CALM      29.98R
NUCLA          FAIR      19  14  79 E6        30.00R WCI  11
$$

COZ017>023-064>068-251200-
...SOUTHWEST COLORADO...

CITY           SKY/WX    TMP DP  RH WIND       PRES   REMARKS
DURANGO        CLOUDY    22  16  78 SW9       29.89F WCI  12
CORTEZ         FAIR      24  17  74 CALM      29.96S
PAGOSA SPRINGS CLOUDY    17  14  91 CALM      29.88S
TELLURIDE      LGT SNOW  13  10  90 CALM      29.86F
WOLF CREEK PAS CLOUDY     1   0  92 S15G22    29.77S WCI -18
$$

COZ009-010-012-014-032>034-037-058>063-251200-
...CENTRAL COLORADO...

CITY           SKY/WX    TMP DP  RH WIND       PRES   REMARKS
ASPEN          LGT SNOW  10   6  84 SW5       29.85S FOG     WCI   2
BUENA VISTA    CLOUDY    16   7  69 CALM      29.81S
COPPER MTN     LGT SNOW   1  -6  71 W14G20    29.66S WCI -17
BERTHOUD PASS  SNOW      -6 -17  59 NW28G41   29.59R VSB 1/2 WCI -33
COTTONWOOD PAS CLOUDY    16   7  67 NW3       29.75R
GUNNISON       FAIR      14   8  77 NW7       29.87R WCI   4
GRANBY         CLOUDY    10   3  71 CALM      29.81S
KREMMLING      MOCLDY    14   9  79 W3        29.86S
LEADVILLE      CLOUDY     5  -1  76 NW12G21   29.74R WCI -11
MONARCH PASS   CLOUDY     1  -4  78 W35G41    29.77R WCI -25
SALIDA         MOCLDY    20   6  54 SW12      29.90S WCI   8
SUNLIGHT       LGT SNOW   3   0  85 SW9G20    29.78F WCI -11
WILKERSON PASS CLOUDY     1  -2  85 SW12G21   29.70R FOG     WCI -15
$$

COZ069>075-251200-
...SAN LUIS VALLEY/SANGRE DE CRISTO MOUNTAINS...

CITY           SKY/WX    TMP DP  RH WIND       PRES   REMARKS
ALAMOSA        FAIR      13   5  70 SW9       29.84S WCI   1
DEL NORTE      FAIR      16   6  64 NW9       29.84R WCI   4
LA VETA PASS   FLURRIES  10   5  79 MISG      29.85F
SAGUACHE       NOT AVBL
$$

COZ035-036-038>040-251200-
...NORTHERN COLORADO FRONT RANGE...

CITY           SKY/WX    TMP DP  RH WIND       PRES   REMARKS
DENVER INTL AP FAIR      17   4  56 SW8       29.81S WCI   7
AURORA         PTCLDY    19   2  46 CALM      29.82R
FRONT RANGE AP FAIR      20   6  54 SW9       29.82S WCI   9
ERIE MUNI ARPT FAIR      26   2  34 N3        29.88R
BOULDER MUN AP MIX PCPN  28   3  34 W23G37    29.79S WCI  14
CENTENNIAL     FAIR      21   3  45 SW12      29.80S WCI   9
BROOMFIELD     NOT AVBL
FORT COLLINS   FAIR      14   4  64 E13       29.81S WCI   0
LONGMONT       FAIR      29   4  35 W15G22    29.82S WCI  17
$$

COZ041-046-047-076>085-087-088-251200-
...PIKES PEAK/PALMER DIVIDE AND SOUTHERN FOOTHILLS...

CITY           SKY/WX    TMP DP  RH WIND       PRES   REMARKS
COLO. SPRINGS  FAIR      18   4  54 VRB5      29.85R WCI  11
A. F. ACADEMY  FAIR      11   1  65 NE3       29.82R
SCHRIEVER AFB  NOT AVBL
CHEYENNE MTN   FAIR      21   2  44 CALM      29.75S
ELLICOTT         N/A    N/A N/A N/A S3          N/A
FALCON         FAIR      11   2  65 SW7       29.83R WCI   1
FORT CARSON    FAIR      18   4  54 S7        29.85R WCI   9
LIMON          FAIR       3   1  91 CALM      29.84S
MONUMENT HILL  FAIR      18   3  53 SW13      29.79F WCI   4
CANON CITY     CLEAR     18   7  62 N6        29.88R WCI   9
WALSENBURG     NOT AVBL
TRINIDAD       FAIR      22   0  38 CALM      29.83S
$$

COZ042>045-048>051-090-091-251200-
...NORTHEAST COLORADO...

CITY           SKY/WX    TMP DP  RH WIND       PRES   REMARKS
GREELEY ARPT   FAIR      13   7  77 CALM      29.84R
AKRON          FAIR      17   8  67 W12       29.81S WCI   4
BURLINGTON     FAIR      18  12  77 SW8       29.86F WCI   8
WRAY           FAIR      23  14  68 W8        29.86S WCI  14
YUMA           NOT AVBL
STERLING       FAIR      18  10  73 NE6       29.85R WCI   9
HOLYOKE        FAIR      25  14  63 SW9       29.85R WCI  15
FORT MORGAN    FAIR      13   5  69 NW3       29.84R
$$

COZ086-089-092>099-251200-
...SOUTHEAST COLORADO...

CITY           SKY/WX    TMP DP  RH WIND       PRES   REMARKS
PUEBLO         FAIR      13   5  70 NW10      29.90R WCI   0
LA JUNTA       FAIR      20   8  60 CALM      29.89F
LAMAR          FAIR       7   2  80 S8        29.91S WCI  -6
SPRINGFIELD      N/A     12   3  67 N7        29.89R WCI   1
$$



USA.gov is the U.S. government's official web portal to all federal, state and local government web resources and services.